This demonstration page uses our WeatherBlox Daily Observations layout. Learn more.

Left ArrowRight Arrow

39.51506, -84.39828

Hourly Observations for February 5, 2018

Temp ( °F °C ) Dew Point ( °F °C ) Humidity (%) Winds ( mph kmh ) Pressure ( in mb ) Visibility ( mi km ) Precip ( " mm )
12:15 am 00:15 Clear 19 -7.4 11 -11.7 72 72 N 9 15 30.24 1024 10 16 0.00 0.00
12:35 am 00:35 Clear 18 -7.7 11 -11.9 72 72 N 5 7 30.27 1025 10 16 0.00 0.00
12:55 am 00:55 Clear 18 -7.8 11 -11.9 73 73 NNW 6 9 30.27 1025 10 16 0.00 0.00
1:15 am 01:15 Clear 17 -8.2 10 -12 74 74 NNW 7 11 30.27 1025 10 16 0.00 0.00
1:35 am 01:35 Cloudy 18 -8 11 -11.8 74 74 NNW 3 6 30.27 1025 10 16 0.00 0.00
1:55 am 01:55 Cloudy 18 -7.8 11 -11.8 73 73 N 3 6 30.27 1025 10 16 0.00 0.00
2:15 am 02:15 Cloudy 18 -8 11 -11.6 76 76 WNW 3 6 30.30 1026 10 16 0.00 0.00
2:35 am 02:35 Cloudy 18 -7.8 11 -11.5 75 75 Calm 30.30 1026 10 16 0.00 0.00
2:55 am 02:55 Cloudy 18 -7.8 11 -11.5 75 75 W 3 6 30.30 1026 10 16 0.00 0.00
3:15 am 03:15 Cloudy 18 -7.8 12 -11.2 77 77 Calm 30.30 1026 10 16 0.00 0.00
3:35 am 03:35 Cloudy 18 -7.6 12 -11 77 77 Calm 30.30 1026 10 16 0.00 0.00
3:55 am 03:55 Cloudy 19 -7.4 13 -10.7 78 78 W 3 6 30.30 1026 10 16 0.00 0.00
4:15 am 04:15 Cloudy 19 -7.4 14 -10.1 81 81 WSW 3 6 30.30 1026 4 6 0.00 0.00
4:35 am 04:35 Cloudy 19 -7.4 15 -9.6 84 84 WSW 5 7 30.30 1026 5 8 0.00 0.00
4:55 am 04:55 Cloudy 18 -7.6 14 -10.2 82 82 W 7 11 30.33 1027 10 16 0.00 0.00
5:15 am 05:15 Cloudy 18 -7.9 13 -10.7 81 81 W 8 13 30.33 1027 10 16 0.00 0.00
5:35 am 05:35 Partly Cloudy 17 -8.6 11 -11.5 80 80 W 10 17 30.36 1028 10 16 0.00 0.00
5:55 am 05:55 Clear 16 -9.1 11 -11.9 80 80 W 8 13 30.33 1027 10 16 0.00 0.00
6:15 am 06:15 Clear 15 -9.7 10 -12.2 82 82 WNW 5 7 30.33 1027 10 16 0.00 0.00
6:35 am 06:35 Mostly Cloudy 14 -9.8 10 -12.1 83 83 Calm 30.36 1028 10 16 0.00 0.00
6:55 am 06:55 Cloudy 15 -9.7 10 -12.2 82 82 NW 3 6 30.36 1028 10 16 0.00 0.00
7:15 am 07:15 Cloudy 14 -9.8 10 -12.4 82 82 W 6 9 30.36 1028 10 16 0.00 0.00
7:35 am 07:35 Clear 12 -10.9 8 -13.6 81 81 WNW 3 6 30.39 1029 10 16 0.00 0.00
7:55 am 07:55 Sunny 13 -10.6 8 -13.6 79 79 WSW 3 6 30.39 1029 10 16 0.00 0.00
8:15 am 08:15 Sunny 12 -11.3 7 -14.1 80 80 WSW 3 6 30.42 1030 10 16 0.00 0.00
8:35 am 08:35 Sunny 11 -11.4 7 -14 81 81 Calm 30.42 1030 10 16 0.00 0.00
8:55 am 08:55 Sunny 13 -10.4 8 -13.2 80 80 Calm 30.42 1030 10 16 0.00 0.00
9:15 am 09:15 Sunny 14 -10 8 -13.1 78 78 Calm 30.42 1030 10 16 0.00 0.00
9:35 am 09:35 Partly Cloudy 15 -9.5 9 -12.8 77 77 Calm 30.42 1030 10 16 0.00 0.00
9:55 am 09:55 Mostly Cloudy 16 -9.1 10 -12.4 77 77 W 7 11 30.45 1031 10 16 0.00 0.00
10:15 am 10:15 Mostly Cloudy 16 -9 10 -12.4 77 77 W 5 7 30.42 1030 10 16 0.00 0.00
10:35 am 10:35 Partly Cloudy 17 -8.5 10 -12 76 76 S 5 7 30.42 1030 10 16 0.00 0.00
10:55 am 10:55 Partly Cloudy 17 -8.5 11 -11.9 77 77 S 5 7 30.42 1030 10 16 0.00 0.00
11:15 am 11:15 Partly Cloudy 18 -7.6 11 -11.4 74 74 Calm 30.39 1029 10 16 0.00 0.00
11:35 am 11:35 Partly Cloudy 20 -6.8 13 -10.7 74 74 SSW 6 9 30.39 1029 10 16 0.00 0.00
11:55 am 11:55 Partly Cloudy 20 -6.6 13 -10.4 75 75 WSW 5 7 30.39 1029 10 16 0.00 0.00
12:15 pm 12:15 Partly Cloudy 22 -5.7 14 -9.8 73 73 SSW 9 15 30.39 1029 10 16 0.00 0.00
12:35 pm 12:35 Cloudy 23 -5.2 15 -9.3 73 73 S 5 7 30.36 1028 10 16 0.00 0.00
12:55 pm 12:55 Mostly Cloudy 23 -4.8 14 -10 67 67 SSW 6 9 30.36 1028 10 16 0.00 0.00
1:15 pm 13:15 Cloudy 24 -4.6 14 -9.8 67 67 SSW 8 13 30.30 1026 10 16 0.00 0.00
1:35 pm 13:35 Cloudy 24 -4.2 15 -9.4 67 67 SSW 6 9 30.30 1026 10 16 0.00 0.00
1:55 pm 13:55 Mostly Cloudy 24 -4.3 13 -10.4 63 63 SW 9 15 30.30 1026 10 16 0.00 0.00
2:15 pm 14:15 Partly Cloudy 24 -4.2 14 -10.1 64 64 WSW 5 7 30.30 1026 10 16 0.00 0.00
2:35 pm 14:35 Partly Cloudy 25 -3.8 14 -10.1 62 62 SW 8 13 30.30 1026 10 16 0.00 0.00
2:55 pm 14:55 Sunny 25 -3.9 13 -10.3 61 61 WSW 8 13 30.30 1026 10 16 0.00 0.00
3:15 pm 15:15 Sunny 25 -4 13 -10.7 60 60 Calm 30.27 1025 10 16 0.00 0.00
3:35 pm 15:35 Sunny 26 -3.6 13 -10.3 60 60 WSW 6 9 30.27 1025 10 16 0.00 0.00
3:55 pm 15:55 Sunny 26 -3.4 14 -10.1 60 60 SW 6 9 30.27 1025 10 16 0.00 0.00
4:15 pm 16:15 Sunny 26 -3.5 13 -10.3 60 60 WSW 3 6 30.27 1025 10 16 0.00 0.00
4:35 pm 16:35 Sunny 26 -3.5 13 -10.5 59 59 WSW 5 7 30.27 1025 10 16 0.00 0.00
4:55 pm 16:55 Sunny 26 -3.2 14 -10.2 59 59 SSE 3 6 30.27 1025 10 16 0.00 0.00
5:15 pm 17:15 Sunny 26 -3.2 13 -10.4 58 58 S 7 11 30.24 1024 10 16 0.00 0.00
5:35 pm 17:35 Sunny 26 -3.3 14 -10.2 59 59 S 7 11 30.24 1024 10 16 0.00 0.00
5:55 pm 17:55 Sunny 26 -3.3 14 -10.2 59 59 S 8 13 30.24 1024 10 16 0.00 0.00
6:15 pm 18:15 Clear 26 -3.3 14 -10.1 60 60 SSE 8 13 30.24 1024 10 16 0.00 0.00
6:35 pm 18:35 Clear 26 -3.3 14 -10.1 60 60 S 7 11 30.24 1024 10 16 0.00 0.00
6:55 pm 18:55 Partly Cloudy 26 -3.2 15 -9.5 62 62 S 3 6 30.27 1025 10 16 0.00 0.00
7:15 pm 19:15 Clear 26 -3.2 15 -9.2 64 64 SSW 6 9 30.27 1025 10 16 0.00 0.00
7:35 pm 19:35 Clear 26 -3.3 14 -9.9 61 61 S 8 13 30.24 1024 10 16 0.00 0.00
7:55 pm 19:55 Clear 26 -3.4 14 -9.9 61 61 S 8 13 30.24 1024 10 16 0.00 0.00
8:15 pm 20:15 Clear 26 -3.5 14 -9.8 62 62 SSW 5 7 30.24 1024 10 16 0.00 0.00
8:35 pm 20:35 Partly Cloudy 26 -3.4 15 -9.3 64 64 SSE 3 6 30.24 1024 10 16 0.00 0.00
8:55 pm 20:55 Partly Cloudy 26 -3.4 16 -8.7 67 67 Calm 30.24 1024 10 16 0.00 0.00
9:15 pm 21:15 Cloudy 26 -3.2 16 -8.9 65 65 Calm 30.24 1024 10 16 0.00 0.00
9:35 pm 21:35 Cloudy 26 -3.1 16 -8.7 66 66 ESE 3 6 30.24 1024 10 16 0.00 0.00
9:55 pm 21:55 Cloudy 26 -3.2 17 -8.4 68 68 SE 5 7 30.21 1023 10 16 0.00 0.00
10:15 pm 22:15 Cloudy 26 -3.1 17 -8.5 67 67 SSE 3 6 30.21 1023 10 16 0.00 0.00
10:35 pm 22:35 Cloudy 26 -3.1 17 -8.3 68 68 SSE 5 7 30.21 1023 10 16 0.00 0.00
10:55 pm 22:55 Cloudy 27 -2.9 17 -8.6 65 65 S 5 7 30.21 1023 10 16 0.00 0.00
11:15 pm 23:15 Cloudy 26 -3.1 17 -8.2 68 68 SSE 3 6 30.21 1023 10 16 0.00 0.00
11:35 pm 23:35 Cloudy 26 -3.2 18 -7.9 70 70 SSE 5 7 30.21 1023 10 16 0.00 0.00
11:55 pm 23:55 Cloudy 27 -3 18 -7.9 69 69 Calm 30.21 1023 10 16 0.00 0.00

Powered by AerisWeather